Location: Unspecified
(0.0000°N, 0.0000°E)
Time: 17:21:35
(UTC+00:00)

Altair - Visible Passes

Search period start: 18 June 2019 00:00
Search period end: 28 June 2019 00:00
Orbit: 1501 x 1683 km, 47.2° (Epoch: 18 June)

Date Brightness Start Highest point End Pass type
(mag) Time Alt. Az. Time Alt. Az. Time Alt. Az.
18 Jun 8.4 05:02:57 10° NNW 05:12:50 56° NE 05:22:28 10° SE visible
18 Jun 10.1 20:03:10 10° WNW 20:07:05 13° NW 20:11:04 10° NNW visible
19 Jun 8.5 04:37:54 10° NNW 04:47:37 50° NE 04:57:07 10° ESE visible
19 Jun 10.0 19:36:54 10° WNW 19:41:48 15° NW 19:46:49 10° NNW visible
20 Jun 8.7 04:12:53 10° NNW 04:22:24 45° NE 04:31:44 10° ESE visible
20 Jun 9.9 19:10:53 10° W 19:16:32 18° NW 19:22:21 10° N visible
21 Jun 8.8 03:47:54 10° NNW 03:57:11 40° NE 04:06:19 10° ESE visible
21 Jun 9.9 18:45:01 10° W 18:51:18 20° NW 18:57:44 10° N visible
22 Jun 8.9 03:22:58 10° NNW 03:31:57 36° NE 03:40:50 10° ESE visible
22 Jun 7.8 05:26:57 10° NW 05:36:41 52° SW 05:46:14 10° SSE visible
22 Jun 9.8 18:19:16 10° W 18:26:04 23° NW 18:33:02 10° N visible
23 Jun 9.0 02:58:04 10° N 03:06:43 32° NE 03:15:17 10° ESE visible
23 Jun 7.7 05:01:35 10° NW 05:11:28 58° SW 05:21:13 10° SSE visible
24 Jun 9.1 02:33:12 10° N 02:41:29 28° NE 02:49:41 10° ESE visible
24 Jun 7.6 04:36:15 10° NW 04:46:17 65° SW 04:56:09 10° SSE visible
25 Jun 9.2 02:08:24 10° N 02:16:13 25° NE 02:23:59 10° E visible
25 Jun 7.5 04:10:58 10° NW 04:21:05 72° SW 04:31:04 10° SSE visible
26 Jun 9.3 01:43:39 10° N 01:50:57 22° NE 01:58:13 10° E visible
26 Jun 7.5 03:45:42 10° NW 03:55:53 80° SW 04:05:57 10° SE visible
27 Jun 9.4 01:19:00 10° N 01:25:41 19° NE 01:32:20 10° E visible
27 Jun 7.5 03:20:29 10° NW 03:30:41 88° SW 03:40:48 10° SE visible
27 Jun 8.7 05:29:25 10° W 05:35:41 18° SW 05:41:54 10° S visible
